Starlink 35164

operational
NORAD ID: 65519 Int'l Des: 2025-198 Owner: SPXS Country: US Constellation: starlink
LEOCIRCULAR

About Starlink 35164

Description loading...

Live Position

Loading 3D Globe...

Upcoming Passes

Altitude History

Altitude vs Time

uPlot chart will show altitude changes over time

Two-Line Element Set

1 65519U 25198AD 26061.05158228 .00033011 00000-0 11215-2 0 9997
2 65519 53.1586 306.2601 0001097 97.1245 262.9880 15.30206032 27454
Epoch: Mar 2, 2026 • Age: 32 hours

Current Status

Altitude 474.8 km
Velocity 7.63 km/s
Sub-Earth Point 15.22°N, 168.25°W
Launch Date Sep 5, 2025
Age 0.4 years
Type internet

Technical Details

Classification Payload
Mass 575.00 kg
Dry Mass 530.00 kg
Total Mass 575.00 kg
Length 0.30 m
Diameter 4.10 m
Span 29.00 m
Shape Box + pan
Manufacturer SPXS
Bus Type Starlink V2MO
Phase Status In Orbit
Owner/State SPXS/US

Large Constellations

Loading constellations...